• MPC Preparation (Info)

  • MPEC 2016-X11 : 2016 WF10

    The following Minor Planet Electronic Circular may be linked-to from your own Web pages, but must not otherwise be redistributed electronically.

    A form allowing access to any MPEC is at the bottom of this page.


    Read MPEC 2016-X10 Read MPEC 2016-X12


    M.P.E.C. 2016-X11                                Issued 2016 Dec. 1, 15:41 UT
    
         The Minor Planet Electronic Circulars contain information on unusual
             minor planets and routine data on comets.  They are published
        on behalf of Division F of the International Astronomical Union by the
              Minor Planet Center, Smithsonian Astrophysical Observatory,
                              Cambridge, MA 02138, U.S.A.
    
                 Prepared using the Tamkin Foundation Computer Network
    
                                  MPC@CFA.HARVARD.EDU
                URL https://www.minorplanetcenter.net/    ISSN 1523-6714
    
                                       2016 WF10
    
    Observations:
         K16W10F* C2016 11 28.60012 08 36 19.009+07 52 49.45         20.9 wLEX011F51
         K16W10F  C2016 11 28.61418 08 36 10.581+07 53 23.34         21.1 wLEX011F51
         K16W10F  C2016 11 28.62830 08 36 02.034+07 53 57.42         21.0 wLEX011F51
         K16W10F  C2016 11 29.10078 08 31 31.34 +08 12 16.4          20.3 VSEX011033
         K16W10F  C2016 11 29.10315 08 31 29.97 +08 12 21.7          20.2 VSEX011033
         K16W10F  C2016 11 29.10551 08 31 28.59 +08 12 27.3          20.2 VSEX011033
         K16W10F  C2016 11 29.10788 08 31 27.20 +08 12 32.8          20.4 VSEX011033
         K16W10F  C2016 11 29.17841 08 30 46.00 +08 15 18.0          21.0 VSEX011033
         K16W10F  C2016 11 29.18077 08 30 44.62 +08 15 23.4          21.2 VSEX011033
         K16W10F  C2016 11 29.18315 08 30 43.23 +08 15 29.1          21.0 VSEX011033
         K16W10F  C2016 11 29.18788 08 30 40.46 +08 15 40.0          20.7 VSEX011033
         K16W10F  C2016 11 30.29801 08 20 24.77 +08 57 47.0                qEX011I52
         K16W10F  C2016 11 30.30553 08 20 20.90 +08 57 59.6          20.8 VqEX011I52
         K16W10F KC2016 11 30.34592 08 19 58.51 +08 59 30.3          20.8 RoEX011291
         K16W10F KC2016 11 30.34711 08 19 57.89 +08 59 32.6          20.5 RoEX011291
         K16W10F KC2016 12 01.10530 08 13 09.09 +09 26 15.5                qEX011J95
         K16W10F KC2016 12 01.12191 08 13 00.08 +09 26 50.6          20.8 RqEX011J95
         K16W10F  C2016 12 01.30639 08 11 24.72 +09 33 22.7          21.8 VqEX011I52
         K16W10F  C2016 12 01.30750 08 11 24.08 +09 33 26.2          20.6 VqEX011I52
         K16W10F  C2016 12 01.30972 08 11 22.97 +09 33 31.3          21.1 VqEX011I52
    
    Observer details:
    033 Karl Schwarzschild Observatory, Tautenburg.  Observers B. Stecklum,
        C. Hoegner.  Measurer B. Stecklum.  1.34-m f/3 Schmidt + CCD.
    291 LPL/Spacewatch II.  Observer A. F. Tubbiolo.  1.8-m f/2.7 reflector + CCD.
    F51 Pan-STARRS 1, Haleakala.  Observers B. Gibson, T. Goggia, S. Kahale,
        A. Schultz, M. Willman.  Measurers K. Chambers, S. Chastel, L. Denneau,
        H. Flewelling, M. Huber, E. Lilly, E. Magnier, R. Wainscoat, C. Waters,
        R. Weryk.  1.8-m Ritchey-Chretien + CCD.
    I52 Steward Observatory, Mt. Lemmon Station.  Observer J. A. Johnson.
        Measurers E. J. Christensen, D. C. Fuls, A. R. Gibbs, A. D. Grauer,
        J. A. Johnson, R. A. Kowalski, S. M. Larson, G. J. Leonard, R. G. Matheny,
        R. L. Seaman, F. C. Shelly.  1.0-m reflector + CCD.
    J95 Great Shefford.  Observer P. Birtwhistle.  0.40-m f/6.0 Schmidt-Cassegrain
        + CCD.
    
    Orbital elements:
    2016 WF10                                                Earth MOID = 0.0241 AU
    Epoch 2017 Feb. 16.0 TT = JDT 2457800.5                 MPC
    M  67.43926              (2000.0)            P               Q
    n   0.49342698     Peri.  143.24525     +0.94410456     +0.32950012
    a   1.5860643      Node   197.52408     -0.30967018     +0.87629828
    e   0.5914704      Incl.    1.86710     -0.11300864     +0.35146977
    P   2.00           H   22.6           G   0.15           U   8
    Residuals in seconds of arc
    161128 F51  0.2-  0.2+    161129 033  0.3+  0.7-    161130 291  1.4+  0.0
    161128 F51  0.4+  0.2+    161129 033  0.2+  0.8-    161201 J95  0.1+  0.3-
    161128 F51  0.4-  0.2+    161129 033  0.1+  0.6-    161201 J95  0.2+  0.1+
    161129 033  0.4+  0.5-    161129 033  0.1-  0.7-    161201 I52  0.1-  1.0-
    161129 033  0.7+  0.7-    161130 I52 (5.4-  3.7+)   161201 I52  0.8-  0.2+
    161129 033  0.7+  0.7-    161130 I52  0.8-  0.5-    161201 I52  0.5+  0.7+
    161129 033  0.6+  0.8-    161130 291  0.7+  0.4+
    
    Ephemeris:
    2016 WF10                a,e,i = 1.59, 0.59, 2                   q = 0.6480
    Date    TT    R. A. (2000) Decl.     Delta      r     Elong.  Phase     V
    2016 11 01    13 34 48.7 -13 12 46   0.1972  0.8010    12.4   164.6    31.5
    ...
    2016 11 16    10 58 59.2 -02 56 03   0.1410  0.9428    67.0   105.1    22.1
    ...
    2016 11 24    09 24 12.8 +04 24 23   0.1475  1.0226    99.7    72.1    21.0
    ...
    2016 11 30    08 23 06.6 +08 47 08   0.1668  1.0827   121.4    51.0    20.8
    2016 12 01    08 14 04.7 +09 23 09   0.1711  1.0926   124.7    47.9    20.8
    2016 12 02    08 05 23.3 +09 57 00   0.1756  1.1026   127.9    44.9    20.8
    ...
    2016 12 08    07 20 12.0 +12 39 32   0.2083  1.1620   145.1    29.0    20.8
    ...
    2016 12 16    06 36 22.3 +14 55 53   0.2646  1.2398   163.2    13.2    21.0
    ...
    2016 12 31    05 50 01.5 +17 10 08   0.4044  1.3799   166.6     9.5    22.0
    
    A. U. Tomatic                (C) Copyright 2016 MPC           M.P.E.C. 2016-X11
    

    Read MPEC 2016-X10 Read MPEC 2016-X12


    MPEC number:

    Enter an MPEC number in one of the following forms:

    • 1997-B01 (the full form)
    • J97B01 (the packed version of the full form)
    • B01 (the abbreviated form)